Tracking 29892 objects as of 21-Nov-2024
HD Live streaming from Space Station
objects crossing your sky now

STARLINK-31237

Track STARLINK-31237 now!
10-day predictions
STARLINK-31237 is classified as:


NORAD ID: 58855
Int'l Code: 2024-019C
Perigee: 494.6 km
Apogee: 495.7 km
Inclination: 43.0 °
Period: 94.4 minutes
Semi major axis: 6866 km
RCS: Unknown
Launch date: January 29, 2024
Source: United States (US)
Launch site: AIR FORCE EASTERN TEST RANGE (AFETR)
Your satellite tracking list
Your tracking list is empty




NASA's NSSDC Master Catalog

Two Line Element Set (TLE):
1 58855U 24019C   24325.63683632 -.00000238  00000-0  72567-6 0  9997
2 58855  42.9958  42.5871 0000779  28.2125 331.8768 15.25925494 46620
Source of the keplerian elements: AFSPC